Station Historical Data
Daily Summary for June 24, 2012 Units:  Metric    English   Both
« Previous Day
Next Day »
Daily Weekly Monthly Yearly Custom
  High: Low: Average:
Temperature: 35.9 °C 20.6 °C 28.4 °C
Dew Point: 20.5 °C 12.1 °C 15.3 °C
Humidity: 68% 25% 48%
Wind Speed: 14.5km/h 0km/h 4km/h
Wind Gust: 17.7km/h - -
Wind- - SE
Pressure: 1012.8 hPa 1008.4 hPa -
Precipitation: 0 mm    
Historical Graphs
 
 
Tabular Data for June 24, 2012
Time Temperature Dew Point Pressure Wind Wind Speed Wind Gust Humidity Rainfall Rate (Hourly) Conditions
00:00 24.9 °C 14.4 °C 1012.1 hPa NNE 3.2 km/h 6.4 km/h 52% 0 mm
00:05 25 °C 14.4 °C 1012.1 hPa NNE 3.2 km/h 4.8 km/h 52% 0 mm
00:10 24.8 °C 14.6 °C 1012.1 hPa NNE 1.6 km/h 3.2 km/h 53% 0 mm
00:15 24.4 °C 14.8 °C 1012.1 hPa North 1.6 km/h 3.2 km/h 55% 0 mm
00:20 24 °C 14.7 °C 1012.1 hPa North 3.2 km/h 3.2 km/h 56% 0 mm
00:25 23.8 °C 14.8 °C 1012.1 hPa North 1.6 km/h 3.2 km/h 57% 0 mm
00:30 23.7 °C 14.9 °C 1012.1 hPa NNW 3.2 km/h 4.8 km/h 58% 0 mm
00:35 23.4 °C 14.7 °C 1012.1 hPa North 4.8 km/h 4.8 km/h 58% 0 mm
00:40 23.6 °C 14.8 °C 1012.1 hPa North 3.2 km/h 6.4 km/h 58% 0 mm
00:45 23.6 °C 14.9 °C 1012.1 hPa North 3.2 km/h 4.8 km/h 58% 0 mm
00:50 23.7 °C 15 °C 1012.4 hPa North 4.8 km/h 4.8 km/h 58% 0 mm
00:55 23.7 °C 15 °C 1012.4 hPa North 3.2 km/h 4.8 km/h 58% 0 mm
01:00 23.7 °C 14.9 °C 1012.4 hPa North 3.2 km/h 4.8 km/h 58% 0 mm
01:05 23.6 °C 15.1 °C 1012.4 hPa NNE 1.6 km/h 3.2 km/h 59% 0 mm
01:10 23.4 °C 15 °C 1012.4 hPa North 3.2 km/h 4.8 km/h 59% 0 mm
01:15 23.4 °C 15.2 °C 1012.4 hPa North 3.2 km/h 4.8 km/h 60% 0 mm
01:20 23.3 °C 15.1 °C 1012.4 hPa North 1.6 km/h 4.8 km/h 60% 0 mm
01:25 23.3 °C 15.1 °C 1012.4 hPa ENE 3.2 km/h 4.8 km/h 60% 0 mm
01:30 23.4 °C 15 °C 1012.4 hPa NNE 1.6 km/h 6.4 km/h 59% 0 mm
01:35 23.5 °C 15.1 °C 1012.4 hPa NE 1.6 km/h 3.2 km/h 59% 0 mm
01:40 23.4 °C 15 °C 1012.1 hPa NNE 1.6 km/h 4.8 km/h 59% 0 mm
01:45 23.3 °C 15.1 °C 1012.4 hPa NNE 1.6 km/h 3.2 km/h 60% 0 mm
01:50 23.3 °C 14.9 °C 1012.1 hPa NNE 3.2 km/h 6.4 km/h 59% 0 mm
01:55 23.4 °C 15 °C 1012.4 hPa NE 1.6 km/h 4.8 km/h 59% 0 mm
02:00 23.4 °C 15 °C 1012.4 hPa NE 3.2 km/h 4.8 km/h 59% 0 mm
02:05 23.3 °C 14.9 °C 1012.1 hPa NNE 4.8 km/h 4.8 km/h 59% 0 mm
02:10 23.3 °C 14.9 °C 1012.4 hPa NE 3.2 km/h 4.8 km/h 59% 0 mm
02:16 23.3 °C 14.9 °C 1012.1 hPa NNE 1.6 km/h 4.8 km/h 59% 0 mm
02:21 23.3 °C 14.8 °C 1012.1 hPa NE 3.2 km/h 3.2 km/h 59% 0 mm
02:26 23.2 °C 14.7 °C 1012.1 hPa NNE 3.2 km/h 4.8 km/h 59% 0 mm
02:31 23.2 °C 14.7 °C 1012.1 hPa NNE 4.8 km/h 4.8 km/h 59% 0 mm
02:36 23.2 °C 14.7 °C 1012.1 hPa NNE 3.2 km/h 3.2 km/h 59% 0 mm
02:41 23.1 °C 14.7 °C 1012.1 hPa NNE 3.2 km/h 4.8 km/h 59% 0 mm
02:46 23.1 °C 14.6 °C 1011.7 hPa North 3.2 km/h 4.8 km/h 59% 0 mm
02:51 23.1 °C 14.6 °C 1011.7 hPa NE 3.2 km/h 4.8 km/h 59% 0 mm
02:56 23.1 °C 14.6 °C 1012.1 hPa NNE 4.8 km/h 4.8 km/h 59% 0 mm
03:01 23.1 °C 14.6 °C 1011.7 hPa NE 3.2 km/h 6.4 km/h 59% 0 mm
03:06 23.1 °C 14.6 °C 1011.7 hPa NNE 1.6 km/h 6.4 km/h 59% 0 mm
03:11 23 °C 14.6 °C 1012.1 hPa North 4.8 km/h 6.4 km/h 59% 0 mm
03:16 22.9 °C 14.5 °C 1011.7 hPa NE 3.2 km/h 3.2 km/h 59% 0 mm
03:21 22.9 °C 14.4 °C 1011.7 hPa NNE 4.8 km/h 4.8 km/h 59% 0 mm
03:26 22.9 °C 14.4 °C 1011.7 hPa NE 1.6 km/h 4.8 km/h 59% 0 mm
03:31 22.8 °C 14.4 °C 1011.7 hPa NE 1.6 km/h 6.4 km/h 59% 0 mm
03:36 22.8 °C 14.4 °C 1012.1 hPa NNE 3.2 km/h 4.8 km/h 59% 0 mm
03:41 22.8 °C 14.3 °C 1012.1 hPa NNE 1.6 km/h 4.8 km/h 59% 0 mm
03:46 22.8 °C 14.3 °C 1011.7 hPa NNE 1.6 km/h 6.4 km/h 59% 0 mm
03:51 22.8 °C 14.6 °C 1011.7 hPa NNE 1.6 km/h 4.8 km/h 60% 0 mm
03:56 22.7 °C 14.5 °C 1011.7 hPa North 4.8 km/h 4.8 km/h 60% 0 mm
04:01 22.6 °C 14.4 °C 1011.7 hPa North 3.2 km/h 4.8 km/h 60% 0 mm
04:06 22.4 °C 14.5 °C 1011.7 hPa North 1.6 km/h 4.8 km/h 61% 0 mm
04:11 22.2 °C 14.3 °C 1011.7 hPa NNE 4.8 km/h 6.4 km/h 61% 0 mm
04:16 22.2 °C 14.6 °C 1011.7 hPa NNW 3.2 km/h 4.8 km/h 62% 0 mm
04:21 22.1 °C 14.5 °C 1011.7 hPa NE 3.2 km/h 4.8 km/h 62% 0 mm
04:26 22.1 °C 14.5 °C 1011.7 hPa NE 3.2 km/h 4.8 km/h 62% 0 mm
04:31 22.2 °C 14.3 °C 1011.7 hPa NE 4.8 km/h 4.8 km/h 61% 0 mm
04:36 22.3 °C 14.4 °C 1011.7 hPa NE 4.8 km/h 4.8 km/h 61% 0 mm
04:41 22.2 °C 14.3 °C 1011.7 hPa North 1.6 km/h 4.8 km/h 61% 0 mm
04:46 22.1 °C 14.5 °C 1011.7 hPa NNE 1.6 km/h 4.8 km/h 62% 0 mm
04:51 22.1 °C 14.4 °C 1011.7 hPa NE 1.6 km/h 3.2 km/h 62% 0 mm
04:56 21.9 °C 14.3 °C 1011.7 hPa NNE 3.2 km/h 3.2 km/h 62% 0 mm
05:01 21.9 °C 14.6 °C 1011.4 hPa NNE 1.6 km/h 4.8 km/h 63% 0 mm
05:06 21.8 °C 14.4 °C 1011.4 hPa NE 1.6 km/h 4.8 km/h 63% 0 mm
05:11 21.8 °C 14.4 °C 1011.4 hPa NE 3.2 km/h 4.8 km/h 63% 0 mm
05:16 21.8 °C 14.5 °C 1011.4 hPa North 3.2 km/h 4.8 km/h 63% 0 mm
05:21 21.8 °C 14.4 °C 1011.4 hPa NNE 3.2 km/h 4.8 km/h 63% 0 mm
05:26 21.8 °C 14.4 °C 1011.4 hPa NNE 1.6 km/h 4.8 km/h 63% 0 mm
05:31 21.8 °C 14.4 °C 1011.4 hPa NE 1.6 km/h 4.8 km/h 63% 0 mm
05:36 21.8 °C 14.4 °C 1011.4 hPa NNE 4.8 km/h 4.8 km/h 63% 0 mm
05:41 21.7 °C 14.4 °C 1011.4 hPa NNE 3.2 km/h 4.8 km/h 63% 0 mm
05:46 21.6 °C 14.3 °C 1011.4 hPa Calm   3.2 km/h 63% 0 mm
05:51 21.4 °C 14.3 °C 1011.4 hPa NNE 1.6 km/h 3.2 km/h 64% 0 mm
05:57 21.3 °C 14.4 °C 1011.4 hPa NNE 3.2 km/h 6.4 km/h 65% 0 mm
06:02 21.2 °C 14.3 °C 1011.4 hPa NE 3.2 km/h 4.8 km/h 65% 0 mm
06:07 21.2 °C 14.3 °C 1011.4 hPa NE 1.6 km/h 3.2 km/h 65% 0 mm
06:12 21.2 °C 14.3 °C 1011.4 hPa NE 1.6 km/h 3.2 km/h 65% 0 mm
06:17 21.2 °C 14.3 °C 1011.4 hPa North 3.2 km/h 3.2 km/h 65% 0 mm
06:22 20.9 °C 14.3 °C 1011.4 hPa Calm   3.2 km/h 66% 0 mm
06:27 20.7 °C 14.3 °C 1011.4 hPa Calm   3.2 km/h 67% 0 mm
06:32 20.6 °C 14.2 °C 1011.4 hPa NNE 1.6 km/h 4.8 km/h 67% 0 mm
06:37 20.7 °C 14.3 °C 1011.4 hPa NW 1.6 km/h 4.8 km/h 67% 0 mm
06:42 20.7 °C 14.3 °C 1011.4 hPa Calm   1.6 km/h 67% 0 mm
06:47 20.6 °C 14.2 °C 1011.4 hPa NNE 3.2 km/h 4.8 km/h 67% 0 mm
06:52 20.7 °C 14.3 °C 1011.7 hPa NNE 1.6 km/h 4.8 km/h 67% 0 mm
06:57 20.7 °C 14.4 °C 1011.7 hPa NNE 1.6 km/h 4.8 km/h 67% 0 mm
07:02 20.8 °C 14.5 °C 1011.7 hPa NNE 1.6 km/h 1.6 km/h 67% 0 mm
07:07 21 °C 14.7 °C 1011.7 hPa North 1.6 km/h 3.2 km/h 67% 0 mm
07:12 20.9 °C 14.8 °C 1011.7 hPa Calm   3.2 km/h 68% 0 mm
07:17 21 °C 14.9 °C 1011.7 hPa NW 1.6 km/h 1.6 km/h 68% 0 mm
07:22 21.3 °C 14.9 °C 1011.7 hPa NNW 1.6 km/h 3.2 km/h 67% 0 mm
07:27 21.6 °C 14.9 °C 1011.7 hPa ENE 1.6 km/h 1.6 km/h 66% 0 mm
07:32 21.9 °C 15.3 °C 1011.7 hPa Calm   3.2 km/h 66% 0 mm
07:37 22.2 °C 15.3 °C 1011.7 hPa NNW 1.6 km/h 3.2 km/h 65% 0 mm
07:42 22.4 °C 15.6 °C 1011.7 hPa NE 1.6 km/h 1.6 km/h 65% 0 mm
07:47 22.7 °C 15.5 °C 1011.7 hPa NNE 4.8 km/h 4.8 km/h 64% 0 mm
07:52 22.8 °C 15.9 °C 1011.7 hPa Calm   4.8 km/h 65% 0 mm
07:57 23.1 °C 15.9 °C 1012.1 hPa NNE 1.6 km/h 4.8 km/h 64% 0 mm
08:02 23.2 °C 16.1 °C 1012.1 hPa NNE 3.2 km/h 4.8 km/h 64% 0 mm
08:07 23.3 °C 16.1 °C 1012.1 hPa North 3.2 km/h 6.4 km/h 64% 0 mm
08:12 23.3 °C 16.2 °C 1012.1 hPa NE 6.4 km/h 8 km/h 64% 0 mm
08:17 23.3 °C 16.2 °C 1012.1 hPa NE 3.2 km/h 9.7 km/h 64% 0 mm
08:22 23.6 °C 16.3 °C 1012.1 hPa NE 3.2 km/h 6.4 km/h 64% 0 mm
08:27 23.8 °C 16.6 °C 1012.4 hPa North 3.2 km/h 6.4 km/h 64% 0 mm
08:32 23.9 °C 16.7 °C 1012.1 hPa NE 4.8 km/h 8 km/h 64% 0 mm
08:37 24.2 °C 16.9 °C 1012.4 hPa NE 4.8 km/h 8 km/h 64% 0 mm
08:42 24.4 °C 17.4 °C 1012.4 hPa East 6.4 km/h 6.4 km/h 65% 0 mm
08:47 24.6 °C 16.8 °C 1012.4 hPa East 9.7 km/h 9.7 km/h 62% 0 mm
08:52 24.7 °C 16.9 °C 1012.4 hPa ESE 8 km/h 9.7 km/h 62% 0 mm
08:57 24.8 °C 17.3 °C 1012.8 hPa ESE 11.3 km/h 11.3 km/h 63% 0 mm
09:02 24.8 °C 17.6 °C 1012.4 hPa SE 4.8 km/h 8 km/h 64% 0 mm
09:07 24.9 °C 16.9 °C 1012.4 hPa ESE 1.6 km/h 8 km/h 61% 0 mm
09:12 25.1 °C 17.1 °C 1012.4 hPa ENE 4.8 km/h 6.4 km/h 61% 0 mm
09:17 25.3 °C 17.3 °C 1012.4 hPa NE 6.4 km/h 6.4 km/h 61% 0 mm
09:22 25.5 °C 17.4 °C 1012.4 hPa NE 3.2 km/h 9.7 km/h 61% 0 mm
09:27 25.7 °C 17.4 °C 1012.4 hPa ENE 4.8 km/h 8 km/h 60% 0 mm
09:32 26 °C 17.7 °C 1012.4 hPa NE 8 km/h 8 km/h 60% 0 mm
09:37 26.3 °C 17.9 °C 1012.4 hPa ENE 1.6 km/h 4.8 km/h 60% 0 mm
09:42 26.6 °C 18.2 °C 1012.4 hPa NNE 6.4 km/h 6.4 km/h 60% 0 mm
09:47 26.7 °C 17.8 °C 1012.4 hPa Calm   4.8 km/h 58% 0 mm
09:52 26.9 °C 18 °C 1012.4 hPa NE 3.2 km/h 8 km/h 58% 0 mm
09:57 27.2 °C 18.2 °C 1012.8 hPa NE 3.2 km/h 8 km/h 58% 0 mm
10:02 27.3 °C 18.6 °C 1012.8 hPa NE 6.4 km/h 6.4 km/h 59% 0 mm
10:08 27.5 °C 18.5 °C 1012.8 hPa East 3.2 km/h 6.4 km/h 58% 0 mm
10:13 27.8 °C 18.3 °C 1012.4 hPa East 1.6 km/h 8 km/h 56% 0 mm
10:18 28.2 °C 18.6 °C 1012.4 hPa ENE 3.2 km/h 6.4 km/h 56% 0 mm
10:23 28.4 °C 19.6 °C 1012.8 hPa NE 1.6 km/h 8 km/h 59% 0 mm
10:28 28.4 °C 18.2 °C 1012.8 hPa ENE 1.6 km/h 6.4 km/h 54% 0 mm
10:33 28.9 °C 19.8 °C 1012.8 hPa NE 4.8 km/h 6.4 km/h 58% 0 mm
10:38 29.3 °C 19.6 °C 1012.8 hPa NNE 3.2 km/h 6.4 km/h 56% 0 mm
10:43 29.4 °C 20.3 °C 1012.8 hPa North 3.2 km/h 4.8 km/h 58% 0 mm
10:48 29.6 °C 19.3 °C 1012.4 hPa SE 4.8 km/h 4.8 km/h 54% 0 mm
10:53 29.8 °C 20.1 °C 1012.4 hPa SE 4.8 km/h 6.4 km/h 56% 0 mm
10:58 29.9 °C 19.3 °C 1012.4 hPa North 3.2 km/h 4.8 km/h 53% 0 mm
11:03 30.1 °C 19.1 °C 1012.4 hPa SE 1.6 km/h 8 km/h 52% 0 mm
11:08 30.3 °C 19.3 °C 1012.4 hPa East 1.6 km/h 4.8 km/h 52% 0 mm
11:13 30.6 °C 19.6 °C 1012.4 hPa South 1.6 km/h 4.8 km/h 52% 0 mm
11:18 30.7 °C 19.7 °C 1012.4 hPa Calm   4.8 km/h 52% 0 mm
11:23 30.9 °C 20.5 °C 1012.4 hPa SE 3.2 km/h 6.4 km/h 54% 0 mm
11:28 31.1 °C 19.4 °C 1012.4 hPa Calm   4.8 km/h 50% 0 mm
11:33 31.3 °C 19.6 °C 1012.4 hPa ESE 3.2 km/h 6.4 km/h 50% 0 mm
11:38 31.4 °C 19.8 °C 1012.4 hPa SE 6.4 km/h 9.7 km/h 50% 0 mm
11:43 31.5 °C 20.2 °C 1012.4 hPa ESE 3.2 km/h 8 km/h 51% 0 mm
11:48 31.7 °C 19.3 °C 1012.4 hPa ESE 6.4 km/h 12.9 km/h 48% 0 mm
11:53 31.6 °C 19.6 °C 1012.1 hPa NE 1.6 km/h 9.7 km/h 49% 0 mm
11:58 31.7 °C 19 °C 1012.1 hPa NE 1.6 km/h 8 km/h 47% 0 mm
12:03 31.9 °C 19.2 °C 1012.1 hPa East 6.4 km/h 9.7 km/h 47% 0 mm
12:08 31.9 °C 19.6 °C 1012.1 hPa NNE 8 km/h 9.7 km/h 48% 0 mm
12:13 31.9 °C 19.5 °C 1012.1 hPa NW 4.8 km/h 8 km/h 48% 0 mm
12:18 32.2 °C 17.3 °C 1012.1 hPa North 1.6 km/h 11.3 km/h 41% 0 mm
12:23 32.2 °C 17.3 °C 1012.1 hPa NE 3.2 km/h 9.7 km/h 41% 0 mm
12:28 32.3 °C 17.4 °C 1012.1 hPa NNW 6.4 km/h 11.3 km/h 41% 0 mm
12:33 32.6 °C 17.6 °C 1012.1 hPa SW 1.6 km/h 12.9 km/h 41% 0 mm
12:38 32.7 °C 16.6 °C 1011.7 hPa NE 6.4 km/h 9.7 km/h 38% 0 mm
12:43 32.8 °C 16.7 °C 1011.7 hPa NE 6.4 km/h 11.3 km/h 38% 0 mm
12:48 32.7 °C 16.6 °C 1011.7 hPa NE 3.2 km/h 8 km/h 38% 0 mm
12:53 33.1 °C 16.4 °C 1011.7 hPa NNW 4.8 km/h 11.3 km/h 37% 0 mm
12:58 32.9 °C 13.6 °C 1012.1 hPa NNE 6.4 km/h 12.9 km/h 31% 0 mm
13:03 32.9 °C 15.9 °C 1011.7 hPa NE 4.8 km/h 9.7 km/h 36% 0 mm
13:08 33.1 °C 15.2 °C 1011.7 hPa NNE 6.4 km/h 11.3 km/h 34% 0 mm
13:13 33.2 °C 14.3 °C 1011.7 hPa NE 6.4 km/h 9.7 km/h 32% 0 mm
13:18 33.1 °C 15.6 °C 1011.7 hPa NE 6.4 km/h 11.3 km/h 35% 0 mm
13:23 33.1 °C 14.7 °C 1011.7 hPa ESE 8 km/h 8 km/h 33% 0 mm
13:29 33.4 °C 16.3 °C 1011.7 hPa NE 4.8 km/h 11.3 km/h 36% 0 mm
13:34 33.3 °C 15.8 °C 1011.7 hPa NNW 4.8 km/h 11.3 km/h 35% 0 mm
13:39 33.4 °C 16.3 °C 1011.7 hPa WNW 4.8 km/h 8 km/h 36% 0 mm
13:44 33.5 °C 16.8 °C 1011.4 hPa East 8 km/h 8 km/h 37% 0 mm
13:49 33.6 °C 16.1 °C 1011.4 hPa NW 3.2 km/h 8 km/h 35% 0 mm
13:54 33.9 °C 15.4 °C 1011.4 hPa ENE 8 km/h 11.3 km/h 33% 0 mm
13:59 33.8 °C 13.3 °C 1011.4 hPa North 6.4 km/h 11.3 km/h 29% 0 mm
14:04 33.9 °C 13.4 °C 1011.4 hPa ENE 8 km/h 9.7 km/h 29% 0 mm
14:09 34 °C 14.5 °C 1011.4 hPa NW 6.4 km/h 8 km/h 31% 0 mm
14:14 34.1 °C 14.1 °C 1011.1 hPa North 6.4 km/h 9.7 km/h 30% 0 mm
14:19 34.2 °C 14.2 °C 1011.1 hPa NE 4.8 km/h 9.7 km/h 30% 0 mm
14:24 34.1 °C 13.6 °C 1011.1 hPa NNE 8 km/h 11.3 km/h 29% 0 mm
14:29 34.3 °C 13.8 °C 1011.1 hPa NNE 4.8 km/h 8 km/h 29% 0 mm
14:34 34.6 °C 15 °C 1010.7 hPa NE 8 km/h 11.3 km/h 31% 0 mm
14:39 34.4 °C 12.7 °C 1010.7 hPa NNE 4.8 km/h 14.5 km/h 27% 0 mm
14:44 34.5 °C 13.9 °C 1010.7 hPa NNE 8 km/h 12.9 km/h 29% 0 mm
14:49 34.4 °C 13.8 °C 1010.7 hPa NE 8 km/h 16.1 km/h 29% 0 mm
14:54 34.3 °C 13.2 °C 1010.7 hPa NW 3.2 km/h 8 km/h 28% 0 mm
14:59 34.4 °C 13.8 °C 1010.7 hPa NW 14.5 km/h 14.5 km/h 29% 0 mm
15:04 34.4 °C 13.3 °C 1010.7 hPa WNW 1.6 km/h 11.3 km/h 28% 0 mm
15:09 34.7 °C 13.6 °C 1010.4 hPa North 4.8 km/h 8 km/h 28% 0 mm
15:14 34.8 °C 14.2 °C 1010.4 hPa NW 3.2 km/h 6.4 km/h 29% 0 mm
15:19 34.8 °C 14.7 °C 1010.4 hPa WNW 1.6 km/h 9.7 km/h 30% 0 mm
15:24 34.9 °C 14.8 °C 1010.4 hPa NE 11.3 km/h 14.5 km/h 30% 0 mm
15:29 34.7 °C 14.6 °C 1010.4 hPa NE 1.6 km/h 9.7 km/h 30% 0 mm
15:34 34.7 °C 13.6 °C 1010.4 hPa ENE 4.8 km/h 6.4 km/h 28% 0 mm
15:39 34.8 °C 13.1 °C 1010.4 hPa NNE 8 km/h 12.9 km/h 27% 0 mm
15:44 34.9 °C 15.3 °C 1010.4 hPa North 4.8 km/h 9.7 km/h 31% 0 mm
15:49 35.1 °C 14.4 °C 1010.4 hPa NE 6.4 km/h 8 km/h 29% 0 mm
15:54 35.1 °C 14.4 °C 1010.4 hPa North 6.4 km/h 12.9 km/h 29% 0 mm
15:59 35.1 °C 12.1 °C 1010 hPa NNE 1.6 km/h 9.7 km/h 25% 0 mm
16:04 35.3 °C 15.6 °C 1010 hPa North 8 km/h 8 km/h 31% 0 mm
16:10 35.3 °C 12.9 °C 1010 hPa NNW 9.7 km/h 14.5 km/h 26% 0 mm
16:15 35.4 °C 13.1 °C 1010 hPa NNE 6.4 km/h 9.7 km/h 26% 0 mm
16:20 35.6 °C 13.7 °C 1010 hPa NNW 9.7 km/h 11.3 km/h 27% 0 mm
16:25 35.6 °C 14.3 °C 1010 hPa NE 4.8 km/h 12.9 km/h 28% 0 mm
16:30 35.7 °C 15.4 °C 1009.7 hPa NE 3.2 km/h 9.7 km/h 30% 0 mm
16:35 35.8 °C 12.7 °C 1009.7 hPa NW 3.2 km/h 3.2 km/h 25% 0 mm
16:40 35.9 °C 13.4 °C 1009.7 hPa North 8 km/h 9.7 km/h 26% 0 mm
16:45 35.8 °C 13.3 °C 1009.7 hPa NNW 9.7 km/h 14.5 km/h 26% 0 mm
16:50 35.8 °C 15 °C 1009.7 hPa ENE 3.2 km/h 9.7 km/h 29% 0 mm
16:55 35.7 °C 14.3 °C 1009.4 hPa NNE 4.8 km/h 9.7 km/h 28% 0 mm
17:00 35.7 °C 13.8 °C 1009.4 hPa East 1.6 km/h 9.7 km/h 27% 0 mm
17:05 35.8 °C 13.9 °C 1009 hPa NE 8 km/h 8 km/h 27% 0 mm
17:10 35.7 °C 14.3 °C 1009 hPa NNE 8 km/h 9.7 km/h 28% 0 mm
17:15 35.8 °C 15.1 °C 1009 hPa ENE 3.2 km/h 6.4 km/h 29% 0 mm
17:20 35.8 °C 13.3 °C 1009 hPa NE 12.9 km/h 16.1 km/h 26% 0 mm
17:25 35.7 °C 13.2 °C 1009 hPa NE 8 km/h 12.9 km/h 26% 0 mm
17:30 35.7 °C 14.4 °C 1008.7 hPa NE 4.8 km/h 8 km/h 28% 0 mm
17:35 35.7 °C 12.7 °C 1008.7 hPa NE 8 km/h 8 km/h 25% 0 mm
17:40 35.8 °C 13.9 °C 1008.7 hPa North 8 km/h 9.7 km/h 27% 0 mm
17:45 35.7 °C 13.8 °C 1008.4 hPa NNE 4.8 km/h 12.9 km/h 27% 0 mm
17:50 35.6 °C 14.3 °C 1008.4 hPa NNW 8 km/h 12.9 km/h 28% 0 mm
17:55 35.7 °C 15.4 °C 1008.4 hPa NNW 4.8 km/h 12.9 km/h 30% 0 mm
18:00 35.6 °C 14.3 °C 1008.4 hPa NW 3.2 km/h 12.9 km/h 28% 0 mm
18:05 35.7 °C 14.9 °C 1008.4 hPa NNE 4.8 km/h 9.7 km/h 29% 0 mm
18:10 35.7 °C 16.9 °C 1008.4 hPa NE 3.2 km/h 9.7 km/h 33% 0 mm
18:15 35.6 °C 14.3 °C 1008.4 hPa North 11.3 km/h 12.9 km/h 28% 0 mm
18:20 35.5 °C 14.8 °C 1008.4 hPa NNE 6.4 km/h 14.5 km/h 29% 0 mm
18:25 35.6 °C 14.3 °C 1008.4 hPa North 11.3 km/h 12.9 km/h 28% 0 mm
18:30 35.4 °C 14.7 °C 1008.4 hPa NNW 9.7 km/h 12.9 km/h 29% 0 mm
18:35 35.4 °C 15.2 °C 1008.4 hPa NW 12.9 km/h 12.9 km/h 30% 0 mm
18:40 35.3 °C 15.1 °C 1008.7 hPa North 3.2 km/h 14.5 km/h 30% 0 mm
18:45 35.3 °C 14 °C 1008.4 hPa NE 3.2 km/h 14.5 km/h 28% 0 mm
18:50 35.3 °C 15.6 °C 1008.4 hPa NNW 6.4 km/h 6.4 km/h 31% 0 mm
18:55 35.1 °C 14.4 °C 1008.4 hPa North 6.4 km/h 17.7 km/h 29% 0 mm
19:00 35.1 °C 14.4 °C 1008.4 hPa NNW 9.7 km/h 14.5 km/h 29% 0 mm
19:05 35 °C 14.8 °C 1008.4 hPa NNW 3.2 km/h 9.7 km/h 30% 0 mm
19:10 34.9 °C 15.3 °C 1008.4 hPa North 8 km/h 9.7 km/h 31% 0 mm
19:15 34.8 °C 15.2 °C 1008.4 hPa NNW 3.2 km/h 11.3 km/h 31% 0 mm
19:20 34.8 °C 16.2 °C 1008.4 hPa North 6.4 km/h 8 km/h 33% 0 mm
19:25 34.7 °C 15.1 °C 1008.4 hPa North 8 km/h 9.7 km/h 31% 0 mm
19:30 34.5 °C 14.9 °C 1008.4 hPa North 4.8 km/h 9.7 km/h 31% 0 mm
19:36 34.4 °C 15.4 °C 1008.4 hPa NW 6.4 km/h 11.3 km/h 32% 0 mm
19:41 34.3 °C 15.7 °C 1008.4 hPa NNW 6.4 km/h 9.7 km/h 33% 0 mm
19:46 34.1 °C 15.1 °C 1008.4 hPa NNW 4.8 km/h 9.7 km/h 32% 0 mm
19:51 34 °C 15 °C 1008.4 hPa North 8 km/h 8 km/h 32% 0 mm
19:56 33.9 °C 15.4 °C 1008.4 hPa NNE 6.4 km/h 9.7 km/h 33% 0 mm
20:01 33.7 °C 15.2 °C 1008.4 hPa NNW 6.4 km/h 6.4 km/h 33% 0 mm
20:06 33.6 °C 15.1 °C 1008.4 hPa North 4.8 km/h 6.4 km/h 33% 0 mm
20:11 33.3 °C 14.9 °C 1008.4 hPa NNW 3.2 km/h 6.4 km/h 33% 0 mm
20:16 33.2 °C 14.8 °C 1008.4 hPa North 4.8 km/h 4.8 km/h 33% 0 mm
20:21 33.1 °C 14.7 °C 1008.4 hPa NNW 3.2 km/h 4.8 km/h 33% 0 mm
20:26 32.9 °C 15 °C 1008.4 hPa NNW 4.8 km/h 4.8 km/h 34% 0 mm
20:31 32.6 °C 14.7 °C 1008.4 hPa North 3.2 km/h 4.8 km/h 34% 0 mm
20:36 32.3 °C 14.9 °C 1008.4 hPa North 3.2 km/h 3.2 km/h 35% 0 mm
20:41 32.1 °C 14.7 °C 1008.4 hPa North 3.2 km/h 3.2 km/h 35% 0 mm
20:46 31.7 °C 14.8 °C 1008.4 hPa Calm   3.2 km/h 36% 0 mm
20:51 31.4 °C 14.6 °C 1008.4 hPa Calm   1.6 km/h 36% 0 mm
20:56 31.1 °C 15.1 °C 1008.4 hPa North 3.2 km/h 4.8 km/h 38% 0 mm
21:01 30.6 °C 14.7 °C 1008.4 hPa North 3.2 km/h 4.8 km/h 38% 0 mm
21:06 30.3 °C 14.8 °C 1008.4 hPa NNW 3.2 km/h 4.8 km/h 39% 0 mm
21:11 29.8 °C 15.2 °C 1008.4 hPa NNW 3.2 km/h 3.2 km/h 41% 0 mm
21:16 29.4 °C 14.4 °C 1008.4 hPa NNW 4.8 km/h 4.8 km/h 40% 0 mm
21:21 29.2 °C 14.9 °C 1008.4 hPa NNW 3.2 km/h 4.8 km/h 42% 0 mm
21:26 28.9 °C 14.7 °C 1008.7 hPa North 4.8 km/h 4.8 km/h 42% 0 mm
21:31 28.8 °C 14.7 °C 1008.7 hPa NNW 3.2 km/h 4.8 km/h 42% 0 mm
21:36 28.8 °C 14.9 °C 1008.7 hPa NNW 3.2 km/h 4.8 km/h 43% 0 mm
21:41 28.7 °C 14.9 °C 1008.7 hPa North 3.2 km/h 4.8 km/h 43% 0 mm
21:46 28.6 °C 14.8 °C 1008.7 hPa NNE 3.2 km/h 4.8 km/h 43% 0 mm
21:51 28.5 °C 14.7 °C 1008.7 hPa NNW 3.2 km/h 4.8 km/h 43% 0 mm
21:56 28.3 °C 14.6 °C 1008.7 hPa NNW 3.2 km/h 4.8 km/h 43% 0 mm
22:01 28.3 °C 14.9 °C 1008.7 hPa NNE 3.2 km/h 6.4 km/h 44% 0 mm
22:06 28.3 °C 14.9 °C 1008.7 hPa North 4.8 km/h 6.4 km/h 44% 0 mm
22:11 28.1 °C 14.7 °C 1008.7 hPa ENE 1.6 km/h 3.2 km/h 44% 0 mm
22:16 28.1 °C 14.7 °C 1008.7 hPa NNE 3.2 km/h 3.2 km/h 44% 0 mm
22:21 28.2 °C 14.8 °C 1008.7 hPa NNE 1.6 km/h 3.2 km/h 44% 0 mm
22:26 28.1 °C 14.7 °C 1008.7 hPa NNE 1.6 km/h 3.2 km/h 44% 0 mm
22:31 27.9 °C 14.6 °C 1009 hPa NNE 1.6 km/h 3.2 km/h 44% 0 mm
22:36 27.8 °C 14.4 °C 1009 hPa North 3.2 km/h 4.8 km/h 44% 0 mm
22:41 27.7 °C 14.7 °C 1009 hPa North 1.6 km/h 4.8 km/h 45% 0 mm
22:46 27.6 °C 14.6 °C 1009 hPa NNE 3.2 km/h 3.2 km/h 45% 0 mm
22:51 27.6 °C 14.6 °C 1009 hPa NNE 1.6 km/h 3.2 km/h 45% 0 mm
22:56 27.4 °C 14.4 °C 1009 hPa Calm   3.2 km/h 45% 0 mm
23:01 27.3 °C 14.7 °C 1009 hPa NNE 1.6 km/h 3.2 km/h 46% 0 mm
23:06 27.2 °C 14.6 °C 1009 hPa NNE 3.2 km/h 4.8 km/h 46% 0 mm
23:11 27.2 °C 14.6 °C 1009 hPa North 1.6 km/h 3.2 km/h 46% 0 mm
23:17 27.1 °C 14.4 °C 1009 hPa North 3.2 km/h 4.8 km/h 46% 0 mm
23:22 26.9 °C 14.3 °C 1009 hPa NNW 3.2 km/h 4.8 km/h 46% 0 mm
23:27 26.9 °C 14.6 °C 1009 hPa North 3.2 km/h 4.8 km/h 47% 0 mm
23:32 26.8 °C 14.6 °C 1009 hPa NNE 3.2 km/h 4.8 km/h 47% 0 mm
23:37 26.7 °C 14.5 °C 1009 hPa NNE 3.2 km/h 3.2 km/h 47% 0 mm
23:42 26.6 °C 14.7 °C 1009 hPa NNE 1.6 km/h 3.2 km/h 48% 0 mm
23:47 26.4 °C 14.6 °C 1009 hPa North 1.6 km/h 3.2 km/h 48% 0 mm
23:52 26.3 °C 14.7 °C 1009 hPa NNW 1.6 km/h 1.6 km/h 49% 0 mm
23:57 26.2 °C 14.6 °C 1009 hPa North 1.6 km/h 4.8 km/h 49% 0 mm
Compliments of Weather Underground